| time (UTC) | temp F | wind direction | speed knots | gust knots | rain 1hr in | rain 24hr in | rain mn in | humidity % | barometer mb |
| 20260906175355 | 95 | 128 | 1.7 | 2.6 | 0.00 | 0.00 | 0.00 | 52 | 1015.5 |
| 20260906174855 | 95 | 128 | 0.0 | 5.2 | 0.00 | 0.00 | 0.00 | 52 | 1015.5 |
| 20260906174354 | 95 | 99 | 1.7 | 5.2 | 0.00 | 0.00 | 0.00 | 52 | 1015.5 |
| 20260906173854 | 94 | 119 | 1.7 | 3.5 | 0.00 | 0.00 | 0.00 | 53 | 1015.5 |
| 20260906173353 | 94 | 115 | 0.9 | 3.5 | 0.00 | 0.00 | 0.00 | 54 | 1015.8 |
| 20260906172832 | 93 | 128 | 0.9 | 2.6 | 0.00 | 0.00 | 0.00 | 56 | 1015.8 |
| 20260906172331 | 93 | 120 | 0.0 | 2.6 | 0.00 | 0.00 | 0.00 | 55 | 1015.9 |
| 20260906171830 | 93 | 117 | 1.7 | 2.6 | 0.00 | 0.00 | 0.00 | 55 | 1015.9 |
| 20260906171330 | 92 | 117 | 0.9 | 2.6 | 0.00 | 0.00 | 0.00 | 56 | 1016.0 |
| 20260906170830 | 92 | 114 | 0.9 | 2.6 | 0.00 | 0.00 | 0.00 | 57 | 1016.0 |
| 20260906170329 | 92 | 113 | 0.9 | 2.6 | 0.00 | 0.00 | 0.00 | 57 | 1016.2 |
| 20260906165829 | 92 | 113 | 0.9 | 3.5 | 0.00 | 0.00 | 0.00 | 57 | 1016.1 |
| 20260906165328 | 92 | 106 | 1.7 | 5.2 | 0.00 | 0.00 | 0.00 | 57 | 1016.2 |
| 20260906164828 | 91 | 95 | 2.6 | 5.2 | 0.00 | 0.00 | 0.00 | 58 | 1016.1 |
| 20260906164328 | 91 | 95 | 1.7 | 5.2 | 0.00 | 0.00 | 0.00 | 58 | 1016.2 |
| 20260906163827 | 91 | 125 | 0.9 | 5.2 | 0.00 | 0.00 | 0.00 | 59 | 1016.3 |
| 20260906163327 | 90 | 118 | 1.7 | 5.2 | 0.00 | 0.00 | 0.00 | 60 | 1016.4 |
| 20260906162826 | 90 | 140 | 1.7 | 5.2 | 0.00 | 0.00 | 0.00 | 61 | 1016.4 |
| 20260906162326 | 89 | 107 | 1.7 | 4.3 | 0.00 | 0.00 | 0.00 | 60 | 1016.4 |
| 20260906161825 | 89 | 126 | 0.9 | 4.3 | 0.00 | 0.00 | 0.00 | 62 | 1016.4 |
| 20260906161325 | 89 | 122 | 0.0 | 3.5 | 0.00 | 0.00 | 0.00 | 62 | 1016.4 |
| 20260906160824 | 89 | 122 | 0.0 | 3.5 | 0.00 | 0.00 | 0.00 | 63 | 1016.4 |
| 20260906160324 | 88 | 129 | 0.9 | 3.5 | 0.00 | 0.00 | 0.00 | 63 | 1016.4 |
| 20260906155824 | 88 | 137 | 0.0 | 3.5 | 0.00 | 0.00 | 0.00 | 64 | 1016.4 |
| 20260906155323 | 88 | 112 | 1.7 | 3.5 | 0.00 | 0.00 | 0.00 | 65 | 1016.3 |
| 20260906154802 | 87 | 109 | 1.7 | 3.5 | 0.00 | 0.00 | 0.00 | 66 | 1016.2 |
| 20260906154301 | 87 | 126 | 1.7 | 5.2 | 0.00 | 0.00 | 0.00 | 67 | 1016.2 |
| 20260906153801 | 87 | 101 | 2.6 | 5.2 | 0.00 | 0.00 | 0.00 | 68 | 1016.1 |
| 20260906153240 | 86 | 99 | 1.7 | 5.2 | 0.00 | 0.00 | 0.00 | 69 | 1016.1 |
| 20260906152718 | 86 | 101 | 1.7 | 5.2 | 0.00 | 0.00 | 0.00 | 69 | 1016.0 |
| 20260906152217 | 86 | 109 | 0.9 | 3.5 | 0.00 | 0.00 | 0.00 | 70 | 1016.0 |
| 20260906151656 | 86 | 113 | 2.6 | 3.5 | 0.00 | 0.00 | 0.00 | 71 | 1016.1 |
| 20260906151134 | 85 | 105 | 0.9 | 3.5 | 0.00 | 0.00 | 0.00 | 72 | 1016.0 |
| 20260906150612 | 85 | 106 | 0.9 | 5.2 | 0.00 | 0.00 | 0.00 | 73 | 1015.9 |
| 20260906150051 | 85 | 107 | 1.7 | 5.2 | 0.00 | 0.00 | 0.00 | 73 | 1015.9 |
| 20260906145550 | 85 | 101 | 1.7 | 2.6 | 0.00 | 0.00 | 0.00 | 74 | 1016.1 |
| 20260906145049 | 84 | 103 | 0.9 | 3.5 | 0.00 | 0.00 | 0.00 | 73 | 1015.9 |
| 20260906144549 | 84 | 102 | 0.9 | 3.5 | 0.00 | 0.00 | 0.00 | 74 | 1016.0 |
| 20260906144049 | 83 | 99 | 0.9 | 2.6 | 0.00 | 0.00 | 0.00 | 75 | 1015.9 |
| 20260906143548 | 83 | 94 | 0.9 | 2.6 | 0.00 | 0.00 | 0.00 | 76 | 1016.1 |
| 20260906143048 | 82 | 90 | 0.0 | 2.6 | 0.00 | 0.00 | 0.00 | 77 | 1016.1 |
| 20260906142527 | 82 | 90 | 0.9 | 2.6 | 0.00 | 0.00 | 0.00 | 78 | 1016.1 |
| 20260906142005 | 81 | 93 | 0.9 | 2.6 | 0.00 | 0.00 | 0.00 | 80 | 1016.1 |
| 20260906141444 | 81 | 95 | 0.0 | 1.7 | 0.00 | 0.00 | 0.00 | 81 | 1016.1 |
| 20260906140943 | 80 | 95 | 0.0 | 1.7 | 0.00 | 0.00 | 0.00 | 82 | 1016.1 |
| 20260906140422 | 79 | 95 | 0.0 | 1.7 | 0.00 | 0.00 | 0.00 | 83 | 1016.0 |
| 20260906135921 | 79 | 95 | 0.9 | 2.6 | 0.00 | 0.00 | 0.00 | 85 | 1016.0 |
| 20260906135421 | 78 | 95 | 0.0 | 2.6 | 0.00 | 0.00 | 0.00 | 85 | 1016.0 |
| 20260906134920 | 78 | 95 | 1.7 | 1.7 | 0.00 | 0.00 | 0.00 | 86 | 1015.9 |
| 20260906134359 | 77 | 95 | 0.0 | 1.7 | 0.00 | 0.00 | 0.00 | 86 | 1015.9 |
| 20260906133858 | 77 | 95 | 0.0 | 1.7 | 0.00 | 0.00 | 0.00 | 87 | 1015.8 |
| 20260906133358 | 76 | 95 | 0.0 | 2.6 | 0.00 | 0.00 | 0.00 | 87 | 1015.9 |
| 20260906132857 | 76 | 107 | 0.0 | 0.0 | 0.00 | 0.00 | 0.00 | 87 | 1015.9 |
| 20260906132357 | 76 | 109 | 0.0 | 0.0 | 0.00 | 0.00 | 0.00 | 87 | 1015.8 |
| 20260906131835 | 75 | 109 | 0.0 | 0.0 | 0.00 | 0.00 | 0.00 | 87 | 1015.7 |
| 20260906131335 | 75 | 109 | 0.0 | 0.0 | 0.00 | 0.00 | 0.00 | 88 | 1015.5 |
| 20260906130835 | 75 | 110 | 0.0 | 0.0 | 0.00 | 0.00 | 0.00 | 87 | 1015.5 |
| 20260906130334 | 75 | 109 | 0.0 | 0.0 | 0.00 | 0.00 | 0.00 | 87 | 1015.5 |
| 20260906125834 | 74 | 118 | 0.0 | 0.0 | 0.00 | 0.00 | 0.00 | 87 | 1015.5 |
| 20260906125333 | 74 | 118 | 0.0 | 0.0 | 0.00 | 0.00 | 0.00 | 88 | 1015.5 |
| 20260906124811 | 74 | 118 | 0.0 | 0.0 | 0.00 | 0.00 | 0.00 | 87 | 1015.4 |
| 20260906124250 | 74 | 118 | 0.0 | 0.0 | 0.00 | 0.00 | 0.00 | 88 | 1015.3 |
| 20260906123728 | 74 | 118 | 0.0 | 0.0 | 0.00 | 0.00 | 0.00 | 87 | 1015.2 |
| 20260906123228 | 74 | 118 | 0.0 | 0.0 | 0.00 | 0.00 | 0.00 | 87 | 1015.1 |
| 20260906122707 | 74 | 118 | 0.0 | 0.0 | 0.00 | 0.00 | 0.00 | 87 | 1015.1 |
| 20260906122145 | 74 | 118 | 0.0 | 0.0 | 0.00 | 0.00 | 0.00 | 87 | 1015.1 |
| 20260906121624 | 74 | 118 | 0.0 | 0.0 | 0.00 | 0.00 | 0.00 | 87 | 1015.1 |
| 20260906121123 | 74 | 118 | 0.0 | 0.0 | 0.00 | 0.00 | 0.00 | 86 | 1015.0 |
| 20260906120623 | 74 | 118 | 0.0 | 0.0 | 0.00 | 0.00 | 0.00 | 86 | 1014.9 |
| 20260906120123 | 74 | 118 | 0.0 | 0.0 | 0.00 | 0.00 | 0.00 | 86 | 1014.9 |
| 20260906115622 | 74 | 118 | 0.0 | 0.0 | 0.00 | 0.00 | 0.00 | 86 | 1014.8 |
| 20260906115122 | 74 | 118 | 0.0 | 0.0 | 0.00 | 0.00 | 0.00 | 86 | 1014.6 |
| 20260906114621 | 74 | 118 | 0.0 | 0.0 | 0.00 | 0.00 | 0.00 | 86 | 1014.7 |
| 20260906114121 | 74 | 118 | 0.0 | 0.0 | 0.00 | 0.00 | 0.00 | 86 | 1014.6 |
| 20260906113559 | 74 | 112 | 0.0 | 0.0 | 0.00 | 0.00 | 0.00 | 86 | 1014.7 |
| 20260906113058 | 74 | 112 | 0.0 | 0.0 | 0.00 | 0.00 | 0.00 | 86 | 1014.6 |
| 20260906112558 | 74 | 112 | 0.0 | 0.0 | 0.00 | 0.00 | 0.00 | 86 | 1014.6 |
| 20260906112057 | 74 | 112 | 0.0 | 0.0 | 0.00 | 0.00 | 0.00 | 86 | 1014.5 |
| 20260906111557 | 74 | 112 | 0.0 | 0.0 | 0.00 | 0.00 | 0.00 | 86 | 1014.5 |
| 20260906111056 | 74 | 112 | 0.0 | 0.0 | 0.00 | 0.00 | 0.00 | 86 | 1014.5 |
| 20260906110556 | 74 | 109 | 0.0 | 0.0 | 0.00 | 0.00 | 0.00 | 86 | 1014.4 |
| 20260906110055 | 74 | 109 | 0.0 | 0.0 | 0.00 | 0.00 | 0.00 | 86 | 1014.5 |
| 20260906105555 | 74 | 109 | 0.0 | 0.0 | 0.00 | 0.00 | 0.00 | 86 | 1014.5 |
| 20260906105054 | 74 | 109 | 0.0 | 0.0 | 0.00 | 0.00 | 0.00 | 86 | 1014.5 |
| 20260906104553 | 74 | 109 | 0.0 | 0.0 | 0.00 | 0.00 | 0.00 | 86 | 1014.4 |
| 20260906104053 | 74 | 109 | 0.0 | 0.0 | 0.00 | 0.00 | 0.00 | 86 | 1014.5 |
| 20260906103552 | 74 | 109 | 0.0 | 0.0 | 0.00 | 0.00 | 0.00 | 85 | 1014.3 |
| 20260906103031 | 74 | 109 | 0.0 | 0.0 | 0.00 | 0.00 | 0.00 | 85 | 1014.3 |
| 20260906102509 | 74 | 109 | 0.0 | 0.0 | 0.00 | 0.00 | 0.00 | 85 | 1014.5 |
| 20260906102009 | 74 | 109 | 0.0 | 0.0 | 0.00 | 0.00 | 0.00 | 85 | 1014.4 |
| 20260906101509 | 74 | 109 | 0.0 | 0.0 | 0.00 | 0.00 | 0.00 | 85 | 1014.4 |
| 20260906100948 | 74 | 109 | 0.0 | 0.0 | 0.00 | 0.00 | 0.00 | 85 | 1014.4 |
| 20260906100447 | 74 | 109 | 0.0 | 0.0 | 0.00 | 0.00 | 0.00 | 85 | 1014.3 |
| 20260906095946 | 74 | 109 | 0.0 | 0.0 | 0.00 | 0.00 | 0.00 | 85 | 1014.3 |
| 20260906095446 | 74 | 109 | 0.0 | 0.0 | 0.00 | 0.00 | 0.00 | 85 | 1014.4 |
| 20260906094924 | 74 | 109 | 0.0 | 0.0 | 0.00 | 0.00 | 0.00 | 85 | 1014.3 |
| 20260906094403 | 74 | 109 | 0.0 | 0.0 | 0.00 | 0.00 | 0.00 | 84 | 1014.2 |
| 20260906093841 | 74 | 109 | 0.0 | 0.0 | 0.00 | 0.00 | 0.00 | 84 | 1014.2 |
| 20260906093341 | 74 | 109 | 0.0 | 0.0 | 0.00 | 0.00 | 0.00 | 84 | 1014.2 |
| 20260906092840 | 74 | 109 | 0.0 | 0.0 | 0.00 | 0.00 | 0.00 | 84 | 1014.1 |
| 20260906092340 | 74 | 109 | 0.0 | 0.0 | 0.00 | 0.00 | 0.00 | 83 | 1014.1 |
| 20260906091839 | 74 | 109 | 0.0 | 0.0 | 0.00 | 0.00 | 0.00 | 83 | 1014.1 |
| 20260906091318 | 74 | 109 | 0.0 | 0.0 | 0.00 | 0.00 | 0.00 | 84 | 1014.0 |
| 20260906090817 | 74 | 109 | 0.0 | 0.0 | 0.00 | 0.00 | 0.00 | 83 | 1014.0 |
| 20260906090256 | 74 | 109 | 0.0 | 0.0 | 0.00 | 0.00 | 0.00 | 83 | 1013.9 |
| 20260906085755 | 74 | 109 | 0.0 | 0.0 | 0.00 | 0.00 | 0.00 | 83 | 1014.1 |
| 20260906085234 | 75 | 109 | 0.0 | 0.0 | 0.00 | 0.00 | 0.00 | 83 | 1014.0 |
| 20260906084734 | 75 | 109 | 0.0 | 0.0 | 0.00 | 0.00 | 0.00 | 83 | 1014.1 |
| 20260906084233 | 75 | 109 | 0.0 | 0.0 | 0.00 | 0.00 | 0.00 | 83 | 1014.0 |
| 20260906083733 | 75 | 109 | 0.0 | 0.0 | 0.00 | 0.00 | 0.00 | 83 | 1013.9 |
| 20260906083232 | 75 | 109 | 0.0 | 0.0 | 0.00 | 0.00 | 0.00 | 83 | 1013.8 |
| 20260906082732 | 75 | 109 | 0.0 | 0.0 | 0.00 | 0.00 | 0.00 | 82 | 1013.8 |
| 20260906082210 | 75 | 109 | 0.0 | 0.0 | 0.00 | 0.00 | 0.00 | 82 | 1013.8 |
| 20260906081710 | 75 | 109 | 0.0 | 0.0 | 0.00 | 0.00 | 0.00 | 83 | 1013.7 |
| 20260906081210 | 75 | 109 | 0.0 | 0.0 | 0.00 | 0.00 | 0.00 | 83 | 1013.8 |
| 20260906080648 | 75 | 109 | 0.0 | 0.0 | 0.00 | 0.00 | 0.00 | 83 | 1013.9 |
| 20260906080148 | 75 | 109 | 0.0 | 0.0 | 0.00 | 0.00 | 0.00 | 83 | 1013.9 |
| 20260906075647 | 75 | 109 | 0.0 | 0.0 | 0.00 | 0.00 | 0.00 | 82 | 1013.9 |
| 20260906075147 | 75 | 109 | 0.0 | 0.0 | 0.00 | 0.00 | 0.00 | 82 | 1013.8 |
| 20260906074646 | 76 | 109 | 0.0 | 0.0 | 0.00 | 0.00 | 0.00 | 82 | 1013.8 |
| 20260906074146 | 76 | 109 | 0.0 | 0.0 | 0.00 | 0.00 | 0.00 | 82 | 1013.8 |
| 20260906073645 | 76 | 109 | 0.0 | 0.0 | 0.00 | 0.00 | 0.00 | 82 | 1013.8 |
| 20260906073145 | 76 | 109 | 0.0 | 0.0 | 0.00 | 0.00 | 0.00 | 82 | 1013.8 |
| 20260906072623 | 76 | 109 | 0.0 | 0.0 | 0.00 | 0.00 | 0.00 | 82 | 1013.7 |
| 20260906072123 | 76 | 109 | 0.0 | 0.0 | 0.00 | 0.00 | 0.00 | 82 | 1013.7 |
| 20260906071602 | 76 | 109 | 0.0 | 0.0 | 0.00 | 0.00 | 0.00 | 82 | 1013.8 |
| 20260906071101 | 76 | 109 | 0.0 | 0.0 | 0.00 | 0.00 | 0.00 | 82 | 1013.9 |
| 20260906070540 | 76 | 109 | 0.0 | 0.0 | 0.00 | 0.00 | 0.00 | 82 | 1013.9 |
| 20260906070039 | 76 | 109 | 0.0 | 0.0 | 0.00 | 0.00 | 0.00 | 82 | 1013.9 |
| 20260906065538 | 76 | 109 | 0.0 | 0.0 | 0.00 | 0.00 | 0.00 | 82 | 1013.8 |
| 20260906065038 | 76 | 109 | 0.0 | 0.0 | 0.00 | 0.00 | 0.00 | 82 | 1013.9 |
| 20260906064538 | 76 | 112 | 0.0 | 0.0 | 0.00 | 0.00 | 0.00 | 82 | 1014.0 |
| 20260906064037 | 76 | 112 | 0.0 | 0.0 | 0.00 | 0.00 | 0.00 | 82 | 1014.0 |
| 20260906063515 | 76 | 112 | 0.0 | 0.0 | 0.00 | 0.00 | 0.00 | 82 | 1014.0 |
| 20260906063015 | 76 | 112 | 0.0 | 0.0 | 0.00 | 0.00 | 0.00 | 81 | 1014.0 |
| 20260906062514 | 76 | 112 | 0.0 | 0.0 | 0.00 | 0.00 | 0.00 | 81 | 1014.0 |
| 20260906062014 | 76 | 112 | 0.0 | 0.0 | 0.00 | 0.00 | 0.00 | 81 | 1014.0 |
| 20260906061453 | 76 | 112 | 0.0 | 0.0 | 0.00 | 0.00 | 0.00 | 80 | 1014.1 |
| 20260906060952 | 76 | 112 | 0.0 | 0.0 | 0.00 | 0.00 | 0.00 | 80 | 1014.1 |
| 20260906060452 | 76 | 112 | 0.0 | 0.0 | 0.00 | 0.00 | 0.00 | 80 | 1014.1 |
| 20260906055951 | 76 | 112 | 0.0 | 0.0 | 0.00 | 0.00 | 0.00 | 80 | 1014.1 |
| 20260906055451 | 76 | 112 | 0.0 | 0.0 | 0.00 | 0.00 | 0.00 | 80 | 1014.2 |
| 20260906054950 | 77 | 112 | 0.0 | 0.0 | 0.00 | 0.00 | 0.00 | 80 | 1014.1 |
| 20260906054429 | 77 | 112 | 0.0 | 0.0 | 0.00 | 0.00 | 0.00 | 80 | 1014.1 |
| 20260906053907 | 77 | 112 | 0.0 | 0.0 | 0.00 | 0.00 | 0.00 | 80 | 1014.2 |
| 20260906053406 | 77 | 112 | 0.0 | 0.0 | 0.00 | 0.00 | 0.00 | 80 | 1014.2 |
| 20260906052845 | 77 | 112 | 0.0 | 0.0 | 0.00 | 0.00 | 0.00 | 80 | 1014.2 |
| 20260906052344 | 77 | 112 | 0.0 | 0.0 | 0.00 | 0.00 | 0.00 | 80 | 1014.2 |
| 20260906051844 | 77 | 112 | 0.0 | 0.0 | 0.00 | 0.00 | 0.00 | 80 | 1014.2 |
| 20260906051343 | 77 | 112 | 0.0 | 0.0 | 0.00 | 0.00 | 0.00 | 79 | 1014.2 |
| 20260906050843 | 77 | 112 | 0.0 | 0.0 | 0.00 | 0.00 | 0.00 | 79 | 1014.3 |
| 20260906050342 | 78 | 112 | 0.0 | 0.0 | 0.00 | 0.00 | 0.00 | 79 | 1014.2 |
| 20260906045842 | 78 | 112 | 0.0 | 0.0 | 0.00 | 0.00 | 0.00 | 79 | 1014.2 |
| 20260906045341 | 78 | 112 | 0.0 | 0.0 | 0.00 | 0.00 | 0.00 | 80 | 1014.2 |
| 20260906044841 | 78 | 112 | 0.0 | 0.0 | 0.00 | 0.00 | 0.00 | 79 | 1014.2 |
| 20260906044340 | 78 | 112 | 0.0 | 0.0 | 0.00 | 0.00 | 0.00 | 79 | 1014.2 |
| 20260906043840 | 78 | 112 | 0.0 | 0.0 | 0.00 | 0.00 | 0.00 | 78 | 1014.2 |
| 20260906043340 | 78 | 112 | 0.0 | 0.0 | 0.00 | 0.00 | 0.00 | 78 | 1014.2 |
| 20260906042840 | 78 | 112 | 0.0 | 0.0 | 0.00 | 0.00 | 0.00 | 78 | 1014.1 |
| 20260906042339 | 78 | 112 | 0.0 | 0.0 | 0.00 | 0.00 | 0.00 | 77 | 1014.2 |
| 20260906041839 | 79 | 112 | 0.0 | 0.0 | 0.00 | 0.00 | 0.00 | 77 | 1014.1 |
| 20260906041338 | 79 | 112 | 0.0 | 0.0 | 0.00 | 0.00 | 0.00 | 77 | 1014.0 |
| 20260906040838 | 79 | 112 | 0.0 | 0.0 | 0.00 | 0.00 | 0.00 | 77 | 1014.1 |
| 20260906040337 | 79 | 112 | 0.0 | 0.0 | 0.00 | 0.00 | 0.00 | 76 | 1014.1 |
| 20260906035815 | 79 | 112 | 0.0 | 0.0 | 0.00 | 0.00 | 0.00 | 77 | 1014.2 |
| 20260906035254 | 79 | 112 | 0.0 | 0.0 | 0.00 | 0.00 | 0.00 | 76 | 1014.1 |
| 20260906034753 | 80 | 112 | 0.0 | 0.0 | 0.00 | 0.00 | 0.00 | 76 | 1014.0 |
| 20260906034232 | 80 | 112 | 0.0 | 0.0 | 0.00 | 0.00 | 0.00 | 76 | 1014.1 |
| 20260906033731 | 80 | 112 | 0.0 | 0.0 | 0.00 | 0.00 | 0.00 | 76 | 1013.9 |
| 20260906033210 | 80 | 112 | 0.0 | 0.0 | 0.00 | 0.00 | 0.00 | 75 | 1013.8 |
| 20260906032710 | 80 | 112 | 0.0 | 0.0 | 0.00 | 0.00 | 0.00 | 75 | 1013.7 |
| 20260906032209 | 81 | 112 | 0.0 | 0.0 | 0.00 | 0.00 | 0.00 | 75 | 1013.6 |
| 20260906031647 | 81 | 112 | 0.0 | 0.0 | 0.00 | 0.00 | 0.00 | 74 | 1013.7 |
| 20260906031147 | 81 | 112 | 0.0 | 0.0 | 0.00 | 0.00 | 0.00 | 74 | 1013.6 |
| 20260906030647 | 82 | 112 | 0.0 | 0.0 | 0.00 | 0.00 | 0.00 | 74 | 1013.7 |
| 20260906030146 | 82 | 112 | 0.0 | 0.0 | 0.00 | 0.00 | 0.00 | 73 | 1013.5 |
| 20260906025646 | 82 | 112 | 0.0 | 0.0 | 0.00 | 0.00 | 0.00 | 73 | 1013.4 |
| 20260906025146 | 83 | 112 | 0.0 | 0.0 | 0.00 | 0.00 | 0.00 | 72 | 1013.4 |
| 20260906024645 | 83 | 112 | 0.0 | 0.0 | 0.00 | 0.00 | 0.00 | 72 | 1013.3 |
| 20260906024145 | 83 | 112 | 0.0 | 0.0 | 0.00 | 0.00 | 0.00 | 71 | 1013.2 |
| 20260906023644 | 84 | 112 | 0.0 | 0.0 | 0.00 | 0.00 | 0.00 | 71 | 1013.3 |
| 20260906023144 | 84 | 112 | 0.0 | 0.0 | 0.00 | 0.00 | 0.00 | 70 | 1013.2 |
| 20260906022643 | 84 | 112 | 0.0 | 0.0 | 0.00 | 0.00 | 0.00 | 69 | 1013.1 |
| 20260906022143 | 84 | 112 | 0.0 | 0.0 | 0.00 | 0.00 | 0.00 | 69 | 1013.0 |
| 20260906021642 | 85 | 112 | 0.0 | 0.0 | 0.00 | 0.00 | 0.00 | 68 | 1013.1 |
| 20260906021141 | 85 | 112 | 0.0 | 0.0 | 0.00 | 0.00 | 0.00 | 68 | 1012.9 |
| 20260906020641 | 85 | 112 | 0.0 | 0.0 | 0.00 | 0.00 | 0.00 | 67 | 1012.8 |
| 20260906020141 | 85 | 112 | 0.0 | 0.0 | 0.00 | 0.00 | 0.00 | 67 | 1012.7 |
| 20260906015640 | 86 | 112 | 0.0 | 0.0 | 0.00 | 0.00 | 0.00 | 66 | 1012.7 |
| 20260906015139 | 86 | 112 | 0.0 | 0.0 | 0.00 | 0.00 | 0.00 | 66 | 1012.7 |
| 20260906014638 | 86 | 112 | 0.0 | 0.0 | 0.00 | 0.00 | 0.00 | 65 | 1012.6 |
| 20260906014138 | 87 | 112 | 0.0 | 0.0 | 0.00 | 0.00 | 0.00 | 64 | 1012.7 |
| 20260906013638 | 87 | 112 | 0.0 | 0.0 | 0.00 | 0.00 | 0.00 | 65 | 1012.5 |
| 20260906013137 | 87 | 112 | 0.0 | 0.0 | 0.00 | 0.00 | 0.00 | 64 | 1012.5 |
| 20260906012637 | 88 | 112 | 0.0 | 0.0 | 0.00 | 0.00 | 0.00 | 63 | 1012.5 |
| 20260906012136 | 88 | 112 | 0.0 | 0.0 | 0.00 | 0.00 | 0.00 | 63 | 1012.4 |
| 20260906011636 | 88 | 112 | 0.0 | 0.0 | 0.00 | 0.00 | 0.00 | 62 | 1012.4 |
| 20260906011135 | 89 | 112 | 0.0 | 0.0 | 0.00 | 0.00 | 0.00 | 62 | 1012.4 |
| 20260906010635 | 89 | 112 | 0.0 | 0.0 | 0.00 | 0.00 | 0.00 | 62 | 1012.4 |
| 20260906010134 | 89 | 112 | 0.0 | 0.0 | 0.00 | 0.00 | 0.00 | 61 | 1012.3 |
| 20260906005613 | 90 | 112 | 0.0 | 0.0 | 0.00 | 0.00 | 0.00 | 61 | 1012.3 |
| 20260906005112 | 90 | 112 | 0.0 | 0.0 | 0.00 | 0.00 | 0.00 | 60 | 1012.4 |
| 20260906004612 | 91 | 97 | 0.0 | 0.0 | 0.00 | 0.00 | 0.00 | 61 | 1012.3 |
| 20260906004111 | 91 | 97 | 0.0 | 0.0 | 0.00 | 0.00 | 0.00 | 60 | 1012.3 |
| 20260906003550 | 92 | 97 | 0.0 | 0.0 | 0.00 | 0.00 | 0.00 | 58 | 1012.3 |
| 20260906003050 | 92 | 97 | 0.0 | 0.0 | 0.00 | 0.00 | 0.00 | 58 | 1012.3 |
| 20260906002031 | 93 | 97 | 0.0 | 0.0 | 0.00 | 0.00 | 0.00 | 59 | 1012.3 |
| 20260906001510 | 93 | 97 | 0.0 | 0.0 | 0.00 | 0.00 | 0.00 | 58 | 1012.2 |
| 20260906001009 | 94 | 97 | 0.0 | 0.0 | 0.00 | 0.00 | 0.00 | 56 | 1012.2 |
| 20260906000509 | 94 | 97 | 0.0 | 0.0 | 0.00 | 0.00 | 0.00 | 54 | 1012.2 |
| 20260906000008 | 95 | 97 | 0.0 | 0.0 | 0.00 | 0.00 | 0.00 | 54 | 1012.2 |
| 20260905235508 | 95 | 97 | 0.0 | 0.0 | 0.00 | 0.00 | 0.00 | 54 | 1012.3 |
| 20260905235008 | 96 | 97 | 0.0 | 0.0 | 0.00 | 0.00 | 0.00 | 54 | 1012.3 |
| 20260905234507 | 96 | 97 | 0.0 | 0.0 | 0.00 | 0.00 | 0.00 | 53 | 1012.3 |
| 20260905234006 | 96 | 97 | 0.0 | 0.0 | 0.00 | 0.00 | 0.00 | 51 | 1012.3 |
| 20260905233506 | 97 | 97 | 0.0 | 0.0 | 0.00 | 0.00 | 0.00 | 53 | 1012.2 |
| 20260905233006 | 97 | 97 | 0.0 | 0.0 | 0.00 | 0.00 | 0.00 | 50 | 1012.3 |
| 20260905232505 | 98 | 97 | 0.0 | 0.0 | 0.00 | 0.00 | 0.00 | 49 | 1012.2 |
| 20260905232005 | 98 | 97 | 0.0 | 0.9 | 0.00 | 0.00 | 0.00 | 49 | 1012.2 |
| 20260905231504 | 98 | 97 | 0.0 | 2.6 | 0.00 | 0.00 | 0.00 | 50 | 1012.1 |
| 20260905231004 | 98 | 91 | 0.9 | 3.5 | 0.00 | 0.00 | 0.00 | 46 | 1012.1 |
| 20260905230503 | 98 | 89 | 1.7 | 3.5 | 0.00 | 0.00 | 0.00 | 45 | 1012.1 |
| 20260905230003 | 98 | 93 | 0.0 | 3.5 | 0.00 | 0.00 | 0.00 | 46 | 1012.2 |
| 20260905225502 | 98 | 91 | 0.9 | 4.3 | 0.00 | 0.00 | 0.00 | 46 | 1012.2 |
| 20260905225002 | 99 | 83 | 2.6 | 4.3 | 0.00 | 0.00 | 0.00 | 44 | 1012.2 |
| 20260905224502 | 99 | 87 | 1.7 | 3.5 | 0.00 | 0.00 | 0.00 | 45 | 1012.2 |
| 20260905224001 | 99 | 99 | 1.7 | 2.6 | 0.00 | 0.00 | 0.00 | 45 | 1012.2 |
| 20260905223500 | 99 | 103 | 0.9 | 4.3 | 0.00 | 0.00 | 0.00 | 45 | 1012.2 |
| 20260905223000 | 99 | 89 | 0.9 | 4.3 | 0.00 | 0.00 | 0.00 | 43 | 1012.1 |
| 20260905222500 | 99 | 114 | 0.0 | 2.6 | 0.00 | 0.00 | 0.00 | 45 | 1012.2 |
| 20260905221938 | 99 | 114 | 0.9 | 2.6 | 0.00 | 0.00 | 0.00 | 42 | 1012.2 |
| 20260905221438 | 99 | 114 | 0.9 | 2.6 | 0.00 | 0.00 | 0.00 | 44 | 1012.3 |
| 20260905220937 | 99 | 115 | 0.0 | 2.6 | 0.00 | 0.00 | 0.00 | 44 | 1012.4 |
| 20260905220436 | 98 | 114 | 1.7 | 3.5 | 0.00 | 0.00 | 0.00 | 43 | 1012.4 |
| 20260905215936 | 98 | 114 | 0.9 | 3.5 | 0.00 | 0.00 | 0.00 | 45 | 1012.5 |
| 20260905215435 | 98 | 106 | 1.7 | 5.2 | 0.00 | 0.00 | 0.00 | 44 | 1012.6 |
| 20260905214935 | 98 | 78 | 2.6 | 7.8 | 0.00 | 0.00 | 0.00 | 43 | 1012.6 |
| 20260905214434 | 98 | 81 | 2.6 | 7.8 | 0.00 | 0.00 | 0.00 | 43 | 1012.7 |
| 20260905213934 | 98 | 80 | 1.7 | 5.2 | 0.00 | 0.00 | 0.00 | 43 | 1012.9 |
| 20260905213412 | 98 | 95 | 0.9 | 4.3 | 0.00 | 0.00 | 0.00 | 44 | 1013.0 |
| 20260905212851 | 98 | 105 | 1.7 | 4.3 | 0.00 | 0.00 | 0.00 | 43 | 1012.9 |
| 20260905212329 | 99 | 100 | 0.9 | 4.3 | 0.00 | 0.00 | 0.00 | 43 | 1013.0 |
| 20260905211829 | 99 | 89 | 0.9 | 4.3 | 0.00 | 0.00 | 0.00 | 44 | 1013.1 |
| 20260905211329 | 99 | 98 | 0.0 | 5.2 | 0.00 | 0.00 | 0.00 | 43 | 1013.1 |
| 20260905210828 | 99 | 57 | 3.5 | 5.2 | 0.00 | 0.00 | 0.00 | 43 | 1013.2 |
| 20260905210328 | 99 | 84 | 0.9 | 5.2 | 0.00 | 0.00 | 0.00 | 47 | 1013.3 |
| 20260905205827 | 99 | 76 | 3.5 | 4.3 | 0.00 | 0.00 | 0.00 | 44 | 1013.4 |
| 20260905205327 | 99 | 76 | 2.6 | 5.2 | 0.00 | 0.00 | 0.00 | 45 | 1013.4 |
| 20260905204827 | 99 | 57 | 4.3 | 5.2 | 0.00 | 0.00 | 0.00 | 43 | 1013.3 |
| 20260905204326 | 99 | 72 | 1.7 | 5.2 | 0.00 | 0.00 | 0.00 | 42 | 1013.3 |
| 20260905203826 | 100 | 95 | 1.7 | 5.2 | 0.00 | 0.00 | 0.00 | 43 | 1013.5 |
| 20260905203326 | 100 | 95 | 2.6 | 5.2 | 0.00 | 0.00 | 0.00 | 45 | 1013.5 |
| 20260905202825 | 100 | 67 | 4.3 | 5.2 | 0.00 | 0.00 | 0.00 | 43 | 1013.7 |
| 20260905202306 | 100 | 103 | 1.7 | 8.7 | 0.00 | 0.00 | 0.00 | 43 | 1013.6 |
| 20260905201804 | 101 | 97 | 1.7 | 8.7 | 0.00 | 0.00 | 0.00 | 42 | 1013.7 |
| 20260905201303 | 101 | 43 | 2.6 | 5.2 | 0.00 | 0.00 | 0.00 | 36 | 1013.8 |
| 20260905200742 | 101 | 150 | 0.0 | 4.3 | 0.00 | 0.00 | 0.00 | 39 | 1013.8 |
| 20260905200240 | 101 | 167 | 2.6 | 3.5 | 0.00 | 0.00 | 0.00 | 38 | 1013.9 |
| 20260905195740 | 101 | 88 | 0.9 | 3.5 | 0.00 | 0.00 | 0.00 | 37 | 1014.1 |
| 20260905195239 | 101 | 88 | 1.7 | 3.5 | 0.00 | 0.00 | 0.00 | 36 | 1014.1 |
| 20260905194739 | 101 | 159 | 0.9 | 4.3 | 0.00 | 0.00 | 0.00 | 38 | 1014.0 |
| 20260905194238 | 101 | 158 | 1.7 | 5.2 | 0.00 | 0.00 | 0.00 | 37 | 1014.0 |
| 20260905193237 | 100 | 126 | 0.9 | 2.6 | 0.00 | 0.00 | 0.00 | 41 | 1014.1 |
| 20260905192737 | 100 | 126 | 0.9 | 1.7 | 0.00 | 0.00 | 0.00 | 41 | 1014.1 |
| 20260905192215 | 100 | 127 | 0.9 | 2.6 | 0.00 | 0.00 | 0.00 | 40 | 1014.1 |
| 20260905191715 | 99 | 126 | 0.0 | 3.5 | 0.00 | 0.00 | 0.00 | 40 | 1014.2 |
| 20260905191214 | 99 | 126 | 2.6 | 3.5 | 0.00 | 0.00 | 0.00 | 41 | 1014.3 |
| 20260905190714 | 99 | 145 | 2.6 | 4.3 | 0.00 | 0.00 | 0.00 | 43 | 1014.3 |
| 20260905190213 | 99 | 127 | 1.7 | 5.2 | 0.00 | 0.00 | 0.00 | 42 | 1014.3 |
| 20260905185713 | 99 | 167 | 1.7 | 5.2 | 0.00 | 0.00 | 0.00 | 40 | 1014.2 |
| 20260905185213 | 99 | 164 | 2.6 | 5.2 | 0.00 | 0.00 | 0.00 | 41 | 1014.4 |
| 20260905184712 | 99 | 163 | 2.6 | 5.2 | 0.00 | 0.00 | 0.00 | 42 | 1014.4 |
| 20260905184212 | 99 | 149 | 0.0 | 2.6 | 0.00 | 0.00 | 0.00 | 44 | 1014.5 |
| 20260905183650 | 98 | 130 | 0.9 | 3.5 | 0.00 | 0.00 | 0.00 | 42 | 1014.5 |
| 20260905183149 | 98 | 107 | 0.9 | 3.5 | 0.00 | 0.00 | 0.00 | 41 | 1014.6 |
| 20260905182649 | 98 | 107 | 1.7 | 4.3 | 0.00 | 0.00 | 0.00 | 41 | 1014.8 |
| 20260905182148 | 97 | 140 | 1.7 | 5.2 | 0.00 | 0.00 | 0.00 | 41 | 1014.8 |
| 20260905181648 | 97 | 140 | 3.5 | 5.2 | 0.00 | 0.00 | 0.00 | 43 | 1014.9 |
| 20260905181147 | 97 | 109 | 0.9 | 5.2 | 0.00 | 0.00 | 0.00 | 43 | 1015.0 |
| 20260905180626 | 96 | 122 | 0.9 | 6.1 | 0.00 | 0.00 | 0.00 | 44 | 1015.1 |
| 20260905180104 | 96 | 159 | 2.6 | 6.1 | 0.00 | 0.00 | 0.00 | 46 | 1015.0 |
| 20260905175543 | 96 | 151 | 0.0 | 1.7 | 0.00 | 0.00 | 0.00 | 50 | 1015.2 |